Time,TemperatureF,DewpointF,PressureIn,WindDirection,WindDirectionDegrees,WindSpeedMPH,WindSpeedGustMPH,Humidity,HourlyPrecipIn,Conditions,Clouds,dailyrainin,SoftwareType,DateUTC
2013-03-18 00:02:00,28.0,16.0,26.37,ENE,58,1.0,7.0,60,0.00,,,0.04,,2013-03-18 06:02:00,
2013-03-18 00:12:00,28.0,16.0,26.37,ENE,58,1.0,7.0,60,0.00,,,0.04,,2013-03-18 06:12:00,
2013-03-18 00:22:00,27.0,16.0,26.38,NE,51,7.0,12.0,63,0.00,,,0.04,,2013-03-18 06:22:00,
2013-03-18 00:32:00,27.0,16.0,26.38,NNE,23,9.0,14.0,64,0.00,,,0.04,,2013-03-18 06:32:00,
2013-03-18 00:42:00,27.0,16.0,26.38,NNE,23,9.0,14.0,64,0.00,,,0.04,,2013-03-18 06:42:00,
2013-03-18 00:52:00,27.0,16.0,26.39,NE,44,7.0,10.0,64,0.00,,,0.04,,2013-03-18 06:52:00,
2013-03-18 01:12:00,27.0,16.0,26.38,NE,49,8.0,12.0,64,0.00,,,0.04,,2013-03-18 07:12:00,
2013-03-18 01:22:00,27.0,16.0,26.39,NE,42,5.0,11.0,64,0.00,,,0.04,,2013-03-18 07:22:00,
2013-03-18 01:32:00,23.0,13.0,26.40,NE,46,8.0,13.0,66,0.00,,,0.04,,2013-03-18 07:32:00,
2013-03-18 01:42:00,23.0,13.0,26.40,NE,46,8.0,13.0,66,0.00,,,0.04,,2013-03-18 07:42:00,
2013-03-18 01:52:00,21.0,13.0,26.41,NE,55,6.0,8.0,70,0.00,,,0.04,,2013-03-18 07:52:00,
2013-03-18 02:02:00,20.0,13.0,26.41,NE,51,6.0,14.0,73,0.00,,,0.04,,2013-03-18 08:02:00,
2013-03-18 02:12:00,20.0,13.0,26.41,NE,51,6.0,14.0,73,0.00,,,0.04,,2013-03-18 08:12:00,
2013-03-18 02:22:00,20.0,13.0,26.41,North,11,8.0,15.0,75,0.00,,,0.04,,2013-03-18 08:22:00,
2013-03-18 02:32:00,19.0,13.0,26.41,ENE,77,7.0,15.0,76,0.00,,,0.04,,2013-03-18 08:32:00,
2013-03-18 02:43:00,19.0,13.0,26.41,ENE,77,7.0,15.0,76,0.00,,,0.04,,2013-03-18 08:43:00,
2013-03-18 02:52:00,18.0,12.0,26.42,ENE,57,7.0,13.0,77,0.00,,,0.04,,2013-03-18 08:52:00,
2013-03-18 03:02:00,18.0,12.0,26.43,NE,44,6.0,12.0,78,0.00,,,0.04,,2013-03-18 09:02:00,
2013-03-18 03:12:00,18.0,12.0,26.43,NE,44,6.0,12.0,78,0.00,,,0.04,,2013-03-18 09:12:00,
2013-03-18 03:22:00,17.0,11.0,26.44,NNE,28,8.0,15.0,78,0.00,,,0.04,,2013-03-18 09:22:00,
2013-03-18 03:33:00,16.0,10.0,26.43,NNE,26,8.0,13.0,78,0.00,,,0.04,,2013-03-18 09:33:00,
2013-03-18 03:43:00,16.0,10.0,26.43,NNE,26,8.0,13.0,78,0.00,,,0.04,,2013-03-18 09:43:00,
2013-03-18 03:53:00,16.0,11.0,26.43,NW,325,6.0,11.0,79,0.00,,,0.04,,2013-03-18 09:53:00,
2013-03-18 04:03:00,16.0,10.0,26.43,NNW,338,4.0,13.0,78,0.00,,,0.04,,2013-03-18 10:03:00,
2013-03-18 04:12:00,16.0,10.0,26.43,NNW,338,4.0,13.0,78,0.00,,,0.04,,2013-03-18 10:12:00,
2013-03-18 04:23:00,16.0,10.0,26.44,NW,311,4.0,9.0,78,0.00,,,0.04,,2013-03-18 10:23:00,
2013-03-18 04:33:00,16.0,10.0,26.44,NNE,32,6.0,10.0,78,0.00,,,0.04,,2013-03-18 10:33:00,
2013-03-18 04:42:00,16.0,10.0,26.44,NNE,32,6.0,10.0,78,0.00,,,0.04,,2013-03-18 10:42:00,
2013-03-18 04:53:00,17.0,11.0,26.44,NNW,346,7.0,16.0,78,0.00,,,0.04,,2013-03-18 10:53:00,
2013-03-18 05:03:00,17.0,11.0,26.44,NE,39,7.0,12.0,77,0.00,,,0.04,,2013-03-18 11:03:00,
2013-03-18 05:12:00,17.0,11.0,26.44,NE,39,7.0,12.0,77,0.00,,,0.04,,2013-03-18 11:12:00,
2013-03-18 05:22:00,17.0,11.0,26.44,North,351,9.0,16.0,76,0.00,,,0.04,,2013-03-18 11:22:00,
2013-03-18 05:32:00,16.0,9.0,26.44,NW,323,12.0,20.0,75,0.00,,,0.04,,2013-03-18 11:32:00,
2013-03-18 05:42:00,16.0,9.0,26.44,NW,323,12.0,20.0,75,0.00,,,0.04,,2013-03-18 11:42:00,
2013-03-18 05:52:00,15.0,9.0,26.45,NNE,19,12.0,24.0,75,0.00,,,0.04,,2013-03-18 11:52:00,
2013-03-18 06:02:00,14.0,8.0,26.45,NNE,14,15.0,26.0,75,0.00,,,0.04,,2013-03-18 12:02:00,
2013-03-18 06:12:00,14.0,8.0,26.45,NNE,14,15.0,26.0,75,0.00,,,0.04,,2013-03-18 12:12:00,
2013-03-18 06:22:00,14.0,8.0,26.46,ENE,64,13.0,25.0,75,0.00,,,0.04,,2013-03-18 12:22:00,
2013-03-18 06:32:00,14.0,8.0,26.46,North,360,10.0,23.0,75,0.00,,,0.04,,2013-03-18 12:32:00,
2013-03-18 06:42:00,14.0,8.0,26.46,North,360,10.0,23.0,75,0.00,,,0.04,,2013-03-18 12:42:00,
2013-03-18 06:52:00,14.0,8.0,26.47,NE,42,10.0,15.0,75,0.00,,,0.04,,2013-03-18 12:52:00,
2013-03-18 07:02:00,15.0,8.0,26.47,NNW,345,9.0,15.0,74,0.00,,,0.04,,2013-03-18 13:02:00,
2013-03-18 07:12:00,15.0,8.0,26.47,NNW,345,9.0,15.0,74,0.00,,,0.04,,2013-03-18 13:12:00,
2013-03-18 07:22:00,17.0,10.0,26.48,NNE,13,10.0,15.0,72,0.00,,,0.04,,2013-03-18 13:22:00,
2013-03-18 07:32:00,16.0,7.0,26.49,NE,40,9.0,18.0,68,0.00,,,0.04,,2013-03-18 13:32:00,
2013-03-18 07:42:00,16.0,7.0,26.49,NE,40,9.0,18.0,68,0.00,,,0.04,,2013-03-18 13:42:00,
2013-03-18 07:52:00,15.0,7.0,26.49,NE,38,7.0,15.0,69,0.00,,,0.04,,2013-03-18 13:52:00,
2013-03-18 08:02:00,16.0,8.0,26.51,NE,41,6.0,10.0,70,0.00,,,0.04,,2013-03-18 14:02:00,
2013-03-18 08:12:00,16.0,8.0,26.51,NE,41,6.0,10.0,70,0.00,,,0.04,,2013-03-18 14:12:00,
2013-03-18 08:22:00,17.0,8.0,26.51,NNE,26,10.0,18.0,68,0.00,,,0.04,,2013-03-18 14:22:00,
2013-03-18 08:32:00,17.0,8.0,26.51,North,10,13.0,19.0,66,0.00,,,0.04,,2013-03-18 14:32:00,
2013-03-18 08:42:00,17.0,8.0,26.51,North,10,13.0,19.0,66,0.00,,,0.04,,2013-03-18 14:42:00,
2013-03-18 08:52:00,18.0,9.0,26.51,NNE,25,10.0,20.0,66,0.00,,,0.04,,2013-03-18 14:52:00,
2013-03-18 09:02:00,18.0,8.0,26.53,NE,44,12.0,21.0,65,0.00,,,0.04,,2013-03-18 15:02:00,
2013-03-18 09:12:00,18.0,8.0,26.53,NE,44,12.0,21.0,65,0.00,,,0.04,,2013-03-18 15:12:00,
2013-03-18 09:22:00,19.0,8.0,26.53,NE,38,9.0,20.0,62,0.00,,,0.04,,2013-03-18 15:22:00,
2013-03-18 09:33:00,21.0,9.0,26.53,ENE,71,9.0,18.0,60,0.00,,,0.04,,2013-03-18 15:33:00,
2013-03-18 09:43:00,21.0,9.0,26.53,ENE,71,9.0,18.0,60,0.00,,,0.04,,2013-03-18 15:43:00,
2013-03-18 09:52:00,21.0,9.0,26.54,North,360,13.0,19.0,58,0.00,,,0.04,,2013-03-18 15:52:00,
2013-03-18 10:03:00,22.0,9.0,26.53,NE,51,10.0,18.0,57,0.00,,,0.04,,2013-03-18 16:03:00,
2013-03-18 10:12:00,22.0,9.0,26.53,NE,51,10.0,18.0,57,0.00,,,0.04,,2013-03-18 16:12:00,
2013-03-18 10:22:00,23.0,9.0,26.54,ENE,57,7.0,14.0,55,0.00,,,0.04,,2013-03-18 16:22:00,
2013-03-18 10:32:00,25.0,10.0,26.54,NNE,13,7.0,14.0,53,0.00,,,0.04,,2013-03-18 16:32:00,
2013-03-18 10:42:00,25.0,10.0,26.54,NNE,13,7.0,14.0,53,0.00,,,0.04,,2013-03-18 16:42:00,
2013-03-18 10:53:00,27.0,10.0,26.54,North,5,12.0,19.0,48,0.00,,,0.04,,2013-03-18 16:53:00,
2013-03-18 11:02:00,27.0,10.0,26.54,NE,48,10.0,15.0,48,0.00,,,0.04,,2013-03-18 17:02:00,
2013-03-18 11:12:00,27.0,10.0,26.54,NE,48,10.0,15.0,48,0.00,,,0.04,,2013-03-18 17:12:00,
2013-03-18 11:22:00,27.0,10.0,26.54,NE,40,12.0,20.0,49,0.00,,,0.04,,2013-03-18 17:22:00,
2013-03-18 11:32:00,28.0,11.0,26.54,NE,38,13.0,18.0,49,0.00,,,0.03,,2013-03-18 17:32:00,
2013-03-18 11:42:00,28.0,11.0,26.54,NE,38,13.0,18.0,49,0.00,,,0.03,,2013-03-18 17:42:00,
2013-03-18 11:52:00,28.0,10.0,26.54,NE,43,10.0,16.0,47,0.00,,,0.03,,2013-03-18 17:52:00,
2013-03-18 12:02:00,29.0,11.0,26.53,NNE,17,12.0,19.0,46,0.00,,,0.03,,2013-03-18 18:02:00,
2013-03-18 12:12:00,29.0,11.0,26.53,NNE,17,12.0,19.0,46,0.00,,,0.03,,2013-03-18 18:12:00,
2013-03-18 12:22:00,29.0,11.0,26.53,NE,46,9.0,19.0,47,0.00,,,0.03,,2013-03-18 18:22:00,
2013-03-18 12:32:00,30.0,11.0,26.53,NNE,19,12.0,23.0,44,0.00,,,0.03,,2013-03-18 18:32:00,
2013-03-18 12:42:00,30.0,11.0,26.53,NNE,19,12.0,23.0,44,0.00,,,0.03,,2013-03-18 18:42:00,
2013-03-18 12:52:00,32.0,11.0,26.53,NNE,24,13.0,20.0,41,0.00,,,0.03,,2013-03-18 18:52:00,
2013-03-18 13:02:00,32.0,10.0,26.53,NNW,337,11.0,19.0,39,0.00,,,0.03,,2013-03-18 19:02:00,
2013-03-18 13:12:00,32.0,10.0,26.53,NNW,337,11.0,19.0,39,0.00,,,0.03,,2013-03-18 19:12:00,
2013-03-18 13:22:00,32.0,9.0,26.52,NNW,348,12.0,23.0,37,0.00,,,0.03,,2013-03-18 19:22:00,
2013-03-18 13:33:00,33.0,7.0,26.51,NE,49,13.0,22.0,33,0.00,,,0.02,,2013-03-18 19:33:00,
2013-03-18 13:42:00,33.0,7.0,26.51,NE,49,13.0,22.0,33,0.00,,,0.02,,2013-03-18 19:42:00,
2013-03-18 13:52:00,34.0,7.0,26.51,NNW,340,13.0,24.0,31,0.00,,,0.02,,2013-03-18 19:52:00,
2013-03-18 14:02:00,35.0,7.0,26.51,NNE,14,13.0,27.0,31,0.00,,,0.02,,2013-03-18 20:02:00,
2013-03-18 14:12:00,35.0,7.0,26.51,NNE,14,13.0,27.0,31,0.00,,,0.02,,2013-03-18 20:12:00,
2013-03-18 14:22:00,36.0,6.0,26.50,ENE,65,13.0,25.0,28,0.00,,,0.02,,2013-03-18 20:22:00,
2013-03-18 14:32:00,36.0,4.0,26.49,ENE,62,14.0,22.0,25,0.00,,,0.02,,2013-03-18 20:32:00,
2013-03-18 14:42:00,36.0,4.0,26.49,ENE,62,14.0,22.0,25,0.00,,,0.02,,2013-03-18 20:42:00,
2013-03-18 14:52:00,36.0,4.0,26.49,WNW,296,13.0,21.0,26,0.00,,,0.02,,2013-03-18 20:52:00,
2013-03-18 15:02:00,36.0,4.0,26.49,ENE,65,13.0,24.0,25,0.00,,,0.02,,2013-03-18 21:02:00,
2013-03-18 15:12:00,36.0,4.0,26.49,ENE,65,13.0,24.0,25,0.00,,,0.02,,2013-03-18 21:12:00,
2013-03-18 15:22:00,37.0,3.0,26.48,NNE,18,13.0,24.0,23,0.00,,,0.02,,2013-03-18 21:22:00,
2013-03-18 15:32:00,36.0,2.0,26.47,NE,42,12.0,23.0,23,0.00,,,0.02,,2013-03-18 21:32:00,
2013-03-18 15:42:00,36.0,2.0,26.47,NE,42,12.0,23.0,23,0.00,,,0.02,,2013-03-18 21:42:00,
2013-03-18 15:53:00,36.0,1.0,26.47,NE,39,12.0,24.0,22,0.00,,,0.02,,2013-03-18 21:53:00,
2013-03-18 16:03:00,36.0,2.0,26.48,NNE,17,11.0,23.0,23,0.00,,,0.02,,2013-03-18 22:03:00,
2013-03-18 16:13:00,36.0,2.0,26.48,NNE,17,11.0,23.0,23,0.00,,,0.02,,2013-03-18 22:13:00,
2013-03-18 16:23:00,36.0,4.0,26.48,NNE,13,10.0,19.0,25,0.00,,,0.02,,2013-03-18 22:23:00,
2013-03-18 16:33:00,36.0,3.0,26.49,NNE,29,10.0,19.0,24,0.00,,,0.01,,2013-03-18 22:33:00,
2013-03-18 16:42:00,36.0,3.0,26.49,NNE,29,10.0,19.0,24,0.00,,,0.01,,2013-03-18 22:42:00,
2013-03-18 16:53:00,36.0,4.0,26.49,North,360,9.0,14.0,25,0.00,,,0.01,,2013-03-18 22:53:00,
2013-03-18 17:02:00,37.0,4.0,26.49,ENE,61,12.0,21.0,24,0.00,,,0.01,,2013-03-18 23:02:00,
2013-03-18 17:12:00,37.0,4.0,26.49,ENE,61,12.0,21.0,24,0.00,,,0.01,,2013-03-18 23:12:00,
2013-03-18 17:22:00,38.0,5.0,26.49,West,281,5.0,9.0,25,0.00,,,0.01,,2013-03-18 23:22:00,
2013-03-18 17:32:00,38.0,5.0,26.49,WSW,241,2.0,8.0,25,0.00,,,0.01,,2013-03-18 23:32:00,
2013-03-18 17:42:00,38.0,5.0,26.49,WSW,241,2.0,8.0,25,0.00,,,0.01,,2013-03-18 23:42:00,
2013-03-18 17:53:00,39.0,5.0,26.49,WSW,243,5.0,11.0,24,0.00,,,0.01,,2013-03-18 23:53:00,
2013-03-18 18:02:00,37.0,4.0,26.49,SW,223,5.0,14.0,24,0.00,,,0.01,,2013-03-19 00:02:00,
2013-03-18 18:12:00,37.0,4.0,26.49,SW,223,5.0,14.0,24,0.00,,,0.01,,2013-03-19 00:12:00,
2013-03-18 18:22:00,36.0,4.0,26.49,WSW,238,6.0,11.0,26,0.00,,,0.01,,2013-03-19 00:22:00,
2013-03-18 18:32:00,36.0,5.0,26.49,SSW,200,7.0,12.0,27,0.00,,,0.00,,2013-03-19 00:32:00,
2013-03-18 18:42:00,36.0,5.0,26.49,SSW,200,7.0,12.0,27,0.00,,,0.00,,2013-03-19 00:42:00,
2013-03-18 18:52:00,35.0,5.0,26.50,SSE,160,6.0,15.0,28,0.00,,,0.00,,2013-03-19 00:52:00,
2013-03-18 19:02:00,35.0,6.0,26.50,South,175,5.0,12.0,29,0.00,,,0.00,,2013-03-19 01:02:00,
2013-03-18 19:12:00,35.0,6.0,26.50,South,175,5.0,12.0,29,0.00,,,0.00,,2013-03-19 01:12:00,
2013-03-18 19:22:00,34.0,7.0,26.51,ESE,107,8.0,14.0,31,0.00,,,0.00,,2013-03-19 01:22:00,
2013-03-18 19:32:00,33.0,6.0,26.51,ESE,105,5.0,10.0,31,0.00,,,0.00,,2013-03-19 01:32:00,
2013-03-18 19:42:00,33.0,6.0,26.51,ESE,105,5.0,10.0,31,0.00,,,0.00,,2013-03-19 01:42:00,
2013-03-18 19:52:00,33.0,6.0,26.52,ESE,105,6.0,9.0,31,0.00,,,0.00,,2013-03-19 01:52:00,
2013-03-18 20:02:00,33.0,7.0,26.53,ESE,118,4.0,7.0,33,0.00,,,0.00,,2013-03-19 02:02:00,
2013-03-18 20:12:00,33.0,7.0,26.53,ESE,118,4.0,7.0,33,0.00,,,0.00,,2013-03-19 02:12:00,
2013-03-18 20:22:00,33.0,6.0,26.53,ESE,111,4.0,8.0,31,0.00,,,0.00,,2013-03-19 02:22:00,
2013-03-18 20:32:00,32.0,7.0,26.53,SSW,203,3.0,9.0,34,0.00,,,0.00,,2013-03-19 02:32:00,
2013-03-18 20:42:00,32.0,7.0,26.53,SSW,203,3.0,9.0,34,0.00,,,0.00,,2013-03-19 02:42:00,
2013-03-18 20:52:00,31.0,6.0,26.54,SSW,202,6.0,7.0,34,0.00,,,0.00,,2013-03-19 02:52:00,
2013-03-18 21:02:00,31.0,6.0,26.54,ESE,106,5.0,11.0,34,0.00,,,0.00,,2013-03-19 03:02:00,
2013-03-18 21:12:00,31.0,6.0,26.54,ESE,106,5.0,11.0,34,0.00,,,0.00,,2013-03-19 03:12:00,
2013-03-18 21:22:00,31.0,6.0,26.54,South,186,1.0,8.0,34,0.00,,,0.00,,2013-03-19 03:22:00,
2013-03-18 21:32:00,30.0,6.0,26.55,South,176,4.0,7.0,36,0.00,,,0.00,,2013-03-19 03:32:00,
2013-03-18 21:43:00,30.0,6.0,26.55,South,176,4.0,7.0,36,0.00,,,0.00,,2013-03-19 03:43:00,
2013-03-18 21:54:00,30.0,8.0,26.55,South,169,1.0,5.0,38,0.00,,,0.00,,2013-03-19 03:54:00,
2013-03-18 22:03:00,30.0,9.0,26.55,SE,142,0.0,4.0,40,0.00,,,0.00,,2013-03-19 04:03:00,
2013-03-18 22:13:00,30.0,9.0,26.55,SE,142,0.0,4.0,40,0.00,,,0.00,,2013-03-19 04:13:00,
2013-03-18 22:23:00,29.0,10.0,26.54,SE,142,2.0,5.0,44,0.00,,,0.00,,2013-03-19 04:23:00,
2013-03-18 22:33:00,30.0,10.0,26.54,SE,138,5.0,7.0,43,0.00,,,0.00,,2013-03-19 04:33:00,
2013-03-18 22:43:00,30.0,10.0,26.54,SE,138,5.0,7.0,43,0.00,,,0.00,,2013-03-19 04:43:00,
2013-03-18 22:52:00,30.0,11.0,26.54,SE,135,1.0,5.0,44,0.00,,,0.00,,2013-03-19 04:52:00,
2013-03-18 23:02:00,28.0,10.0,26.53,SE,135,3.0,5.0,47,0.00,,,0.00,,2013-03-19 05:02:00,
2013-03-18 23:12:00,28.0,10.0,26.53,SE,135,3.0,5.0,47,0.00,,,0.00,,2013-03-19 05:12:00,
2013-03-18 23:22:00,29.0,11.0,26.54,SE,134,1.0,4.0,47,0.00,,,0.00,,2013-03-19 05:22:00,
2013-03-18 23:32:00,28.0,9.0,26.54,SE,134,1.0,5.0,45,0.00,,,0.00,,2013-03-19 05:32:00,
2013-03-18 23:42:00,28.0,9.0,26.54,SE,134,1.0,5.0,45,0.00,,,0.00,,2013-03-19 05:42:00,
2013-03-18 23:52:00,29.0,12.0,26.53,SE,134,0.0,0.0,48,0.00,,,0.00,,2013-03-19 05:52:00,